Find Local Weather

World > North America > United States > North Carolina

Autryville, North Carolina Regional Weather

Lat: 35.00N, Lon: 78.64W
Wx Zone: NCZ089
Warning FLW WEATHER ALERT - (More Info. Click Here) Warning
Feedback

Autryville, NC Regional Weather

Expires:201905232000;;342171
ASUS42 KMHX 231925
RWRMHX
WEATHER ROUNDUP FOR EASTERN NORTH CAROLINA
NATIONAL WEATHER SERVICE NEWPORT/MOREHEAD CITY NC
300 PM EDT THU MAY 23 2019

NOTE: "FAIR" INDICATES FEW OR NO CLOUDS BELOW 12,000 FEET
WITH NO SIGNIFICANT WEATHER AND/OR OBSTRUCTIONS TO VISIBILITY


NCZ011>013-027>030-043-044-078>080-089-090>093-098-232000-
COASTAL PLAIN
  
CITY           SKY/WX    TMP DP  RH WIND       PRES   REMARKS
AHOSKIE        PTSUNNY   81  67  62 W10G16    30.17F                  
CLINTON        FAIR      88  69  53 W9G16     30.20F                  
ELIZABETHTOWN  PTSUNNY   88  67  48 S7        30.21F                  
GOLDSBORO      FAIR      88  68  51 SW15      30.17F                  
GREENVILLE     FAIR      82  66  57 SW7       30.20F                  
HAVELOCK       PTSUNNY   85  64  49 S10G17    30.21F                  
KENANSVILLE    PTSUNNY   86  68  54 SW6       30.20F                  
KINSTON        SUNNY     86  66  51 W8        30.20F                  
NEW BERN       FAIR      86  67  52 VRB7G21   30.20F                  
RICHLANDS      FAIR      87  67  51 SW9       30.20F                  
ROCKY MOUNT    PTSUNNY   84  69  60 SW9       30.18F                  
WASHINGTON     PTSUNNY   85  66  52 W8G18     30.19S                  
WHITEVILLE     PTSUNNY   87  65  47 W5        30.21S                  

$$


SKY/WX - Weather  TMP - Temperature  DP - Dew Point  RH - Relative Humidity
WIND - Wind Direction/Speed PRES - Barometric Pressure VSB - Visibility
WCI - Wind Chill Index E13G22 Wind - East Wind 13 mph/Gusts of 22 mph